RYR5056 LEMD-GMMH

Flight info

Callsign RYR5056
Flight time N/A
Altitude 31000
Route CCS DCT ELVAR DCT TAKAV DCT ROLRO DCT SOLNA L660 DKH
Aircraft B738/M-SDE2E3FGHIRWXY/LB1

Departure

Time N/A
Airport Adolfo Suárez Madrid–Barajas Airport (LEMD)

Arrival

Time 2026-05-04 14:18
Airport Dakhla Airport (GMMH)
Time Latitude Longitude Altitude Speed Heading
2026-05-04 11:56 36.31574 -9.15139 37138 ft 403 kts 214°
2026-05-04 11:57 36.29099 -9.16712 37140 ft 403 kts 214°
2026-05-04 11:57 36.24083 -9.19896 37140 ft 403 kts 214°
2026-05-04 11:58 36.19101 -9.23054 37139 ft 402 kts 214°
2026-05-04 11:58 36.14121 -9.26205 37142 ft 402 kts 214°
2026-05-04 11:59 36.09148 -9.29349 37138 ft 401 kts 214°
2026-05-04 11:59 36.04182 -9.32484 37136 ft 400 kts 214°
2026-05-04 12:00 35.99243 -9.35597 37139 ft 400 kts 214°
2026-05-04 12:00 35.94089 -9.38306 37140 ft 408 kts 206°
2026-05-04 12:01 35.88673 -9.40392 37134 ft 408 kts 205°
2026-05-04 12:02 35.69789 -9.47693 37139 ft 406 kts 206°
2026-05-04 12:03 35.64407 -9.49784 37138 ft 405 kts 206°
2026-05-04 12:03 35.59032 -9.51870 37138 ft 405 kts 206°
2026-05-04 12:04 35.53645 -9.53957 37138 ft 405 kts 206°
2026-05-04 12:04 35.48297 -9.56027 37145 ft 405 kts 206°
2026-05-04 12:05 35.42914 -9.58106 37144 ft 405 kts 206°
2026-05-04 12:05 35.37546 -9.60177 37140 ft 405 kts 206°
2026-05-04 12:06 35.32154 -9.62255 37139 ft 406 kts 206°
2026-05-04 12:06 35.26768 -9.64327 37142 ft 406 kts 206°
2026-05-04 12:07 35.21391 -9.66393 37141 ft 406 kts 206°
2026-05-04 12:07 35.15991 -9.68465 37140 ft 406 kts 206°
2026-05-04 12:08 35.10612 -9.70525 37145 ft 406 kts 206°
2026-05-04 12:08 35.05200 -9.72596 37141 ft 406 kts 206°
2026-05-04 12:09 34.99835 -9.74645 37139 ft 406 kts 206°
2026-05-04 12:09 34.94425 -9.76709 37137 ft 406 kts 206°
2026-05-04 12:10 34.89035 -9.78763 37139 ft 405 kts 206°
2026-05-04 12:10 34.83669 -9.80805 37141 ft 405 kts 206°
2026-05-04 12:11 34.78273 -9.82855 37141 ft 405 kts 206°
2026-05-04 12:11 34.72891 -9.84897 37143 ft 405 kts 206°
2026-05-04 12:12 34.67514 -9.86934 37146 ft 405 kts 206°
2026-05-04 12:12 34.62141 -9.88968 37138 ft 405 kts 205°
2026-05-04 12:14 34.40649 -9.97073 37137 ft 405 kts 205°
2026-05-04 12:15 34.35271 -9.99094 37138 ft 405 kts 205°
2026-05-04 12:15 34.29916 -10.01105 37140 ft 405 kts 205°
2026-05-04 12:16 34.24511 -10.03131 37139 ft 405 kts 205°
2026-05-04 12:16 34.19156 -10.05135 37135 ft 405 kts 205°
2026-05-04 12:17 34.13756 -10.07154 37139 ft 406 kts 205°
2026-05-04 12:17 34.08364 -10.09167 37138 ft 406 kts 205°
2026-05-04 12:18 34.02963 -10.11181 37135 ft 406 kts 205°
2026-05-04 12:18 33.97560 -10.13193 37132 ft 406 kts 205°
2026-05-04 12:19 33.92143 -10.15207 37136 ft 406 kts 204°
2026-05-04 12:19 33.86752 -10.17209 37129 ft 407 kts 204°
2026-05-04 12:20 33.81350 -10.19212 37141 ft 407 kts 204°
2026-05-04 12:20 33.75927 -10.21221 37132 ft 407 kts 204°
2026-05-04 12:21 33.70534 -10.23216 37129 ft 407 kts 204°
2026-05-04 12:21 33.65106 -10.25221 37130 ft 407 kts 204°
2026-05-04 12:22 33.59705 -10.27213 37130 ft 407 kts 204°
2026-05-04 12:22 33.54272 -10.29215 37129 ft 407 kts 204°
2026-05-04 12:23 33.48866 -10.31204 37127 ft 408 kts 204°
2026-05-04 12:23 33.43423 -10.33204 37128 ft 408 kts 204°
2026-05-04 12:24 33.38023 -10.35186 37126 ft 408 kts 204°
2026-05-04 12:24 33.32598 -10.37174 37128 ft 408 kts 204°
2026-05-04 12:25 33.27178 -10.39158 37124 ft 408 kts 204°
2026-05-04 12:25 33.21761 -10.41138 37128 ft 408 kts 204°
2026-05-04 12:26 33.17234 -10.42791 37126 ft 408 kts 204°
2026-05-04 12:26 33.11811 -10.44769 37122 ft 408 kts 204°
2026-05-04 12:27 33.06384 -10.46745 37125 ft 408 kts 204°
2026-05-04 12:27 33.00926 -10.48730 37121 ft 408 kts 204°
2026-05-04 12:28 32.95526 -10.50692 37120 ft 408 kts 204°
2026-05-04 12:28 32.90070 -10.52672 37120 ft 408 kts 204°
2026-05-04 12:29 32.84641 -10.54639 37118 ft 408 kts 204°
2026-05-04 12:29 32.79207 -10.56605 37119 ft 408 kts 204°
2026-05-04 12:30 32.73757 -10.58575 37116 ft 408 kts 204°
2026-05-04 12:30 32.68326 -10.60536 37115 ft 409 kts 204°
2026-05-04 12:31 32.62877 -10.62500 37113 ft 409 kts 204°
2026-05-04 12:31 32.57437 -10.64458 37113 ft 409 kts 204°
2026-05-04 12:32 32.49283 -10.67389 37113 ft 409 kts 204°
2026-05-04 12:33 32.43817 -10.69351 37114 ft 409 kts 204°
2026-05-04 12:33 32.38364 -10.71306 37108 ft 410 kts 204°
2026-05-04 12:34 32.32932 -10.73251 37111 ft 410 kts 204°
2026-05-04 12:34 32.27464 -10.75206 37115 ft 410 kts 204°
2026-05-04 12:35 32.22007 -10.77155 37108 ft 410 kts 204°
2026-05-04 12:35 32.16512 -10.79114 37109 ft 411 kts 204°
2026-05-04 12:36 32.11052 -10.81059 37101 ft 411 kts 204°
2026-05-04 12:36 32.05581 -10.83005 37106 ft 411 kts 204°
2026-05-04 12:37 32.00092 -10.84956 37107 ft 411 kts 204°
2026-05-04 12:37 31.94663 -10.86882 37103 ft 410 kts 204°
2026-05-04 12:38 31.89171 -10.88829 37103 ft 410 kts 204°
2026-05-04 12:38 31.83720 -10.90758 37102 ft 410 kts 204°
2026-05-04 12:39 31.78270 -10.92686 37100 ft 409 kts 204°
2026-05-04 12:39 31.72828 -10.94608 37100 ft 409 kts 205°
2026-05-04 12:40 31.67364 -10.96536 37102 ft 409 kts 205°
2026-05-04 12:40 31.61993 -10.98681 37100 ft 405 kts 208°
2026-05-04 12:41 31.56717 -11.00958 37098 ft 405 kts 208°
2026-05-04 12:41 31.51428 -11.03236 37097 ft 405 kts 208°
2026-05-04 12:42 31.46138 -11.05489 37097 ft 405 kts 208°
2026-05-04 12:42 31.40835 -11.07734 37097 ft 405 kts 208°
2026-05-04 12:43 31.35558 -11.09960 37094 ft 405 kts 208°
2026-05-04 12:43 31.30264 -11.12192 37095 ft 405 kts 208°
2026-05-04 12:44 31.24937 -11.14434 37100 ft 405 kts 208°
2026-05-04 12:44 31.19637 -11.16662 37097 ft 405 kts 208°
2026-05-04 12:45 31.14350 -11.18883 37087 ft 405 kts 208°
2026-05-04 12:45 31.09056 -11.21103 37094 ft 405 kts 208°
2026-05-04 12:46 31.03737 -11.23331 37090 ft 405 kts 208°
2026-05-04 12:46 30.98451 -11.25544 37090 ft 405 kts 208°
2026-05-04 12:47 30.93158 -11.27756 37090 ft 405 kts 208°
2026-05-04 12:47 30.87860 -11.29968 37091 ft 405 kts 208°
2026-05-04 12:48 30.82541 -11.32186 37090 ft 404 kts 208°
2026-05-04 12:48 30.77255 -11.34387 37092 ft 404 kts 208°
2026-05-04 12:49 30.71971 -11.36585 37088 ft 404 kts 208°
2026-05-04 12:49 30.66679 -11.38784 37088 ft 404 kts 208°
2026-05-04 12:50 30.61395 -11.40977 37087 ft 404 kts 208°
2026-05-04 12:50 30.56106 -11.43170 37088 ft 403 kts 208°
2026-05-04 12:51 30.50813 -11.45361 37090 ft 403 kts 208°
2026-05-04 12:51 30.45537 -11.47544 37085 ft 403 kts 208°
2026-05-04 12:52 30.40236 -11.49734 37087 ft 403 kts 208°
2026-05-04 12:52 30.34990 -11.51898 37089 ft 403 kts 208°
2026-05-04 12:53 30.29723 -11.54069 37089 ft 402 kts 208°
2026-05-04 12:53 30.24449 -11.56241 37086 ft 402 kts 208°
2026-05-04 12:54 30.19162 -11.58415 37086 ft 402 kts 208°
2026-05-04 12:54 30.13900 -11.60577 37086 ft 402 kts 208°
2026-05-04 12:55 30.08647 -11.62732 37087 ft 401 kts 208°
2026-05-04 12:55 30.03372 -11.64894 37087 ft 401 kts 208°
2026-05-04 12:56 29.98112 -11.67047 37084 ft 401 kts 208°
2026-05-04 12:56 29.92863 -11.69194 37083 ft 401 kts 208°
2026-05-04 12:57 29.87588 -11.71349 37089 ft 401 kts 208°
2026-05-04 12:57 29.82331 -11.73494 37088 ft 401 kts 208°
2026-05-04 12:58 29.77070 -11.75638 37086 ft 401 kts 208°
2026-05-04 12:58 29.71832 -11.77770 37091 ft 401 kts 208°
2026-05-04 12:59 29.66588 -11.79902 37093 ft 401 kts 208°
2026-05-04 12:59 29.61335 -11.82036 37086 ft 401 kts 208°
2026-05-04 13:00 29.56065 -11.84175 37090 ft 401 kts 208°
2026-05-04 13:00 29.50806 -11.86306 37086 ft 401 kts 208°
2026-05-04 13:01 29.45541 -11.88438 37087 ft 402 kts 208°
2026-05-04 13:01 29.40279 -11.90566 37089 ft 401 kts 208°
2026-05-04 13:02 29.34999 -11.92698 37089 ft 401 kts 208°
2026-05-04 13:02 29.29709 -11.94833 37090 ft 401 kts 208°
2026-05-04 13:03 29.24439 -11.96957 37090 ft 402 kts 208°
2026-05-04 13:03 29.19180 -11.99075 37088 ft 401 kts 208°
2026-05-04 13:04 29.13903 -12.01197 37090 ft 401 kts 208°
2026-05-04 13:04 29.08645 -12.03309 37090 ft 401 kts 208°
2026-05-04 13:05 29.03386 -12.05420 37088 ft 401 kts 208°
2026-05-04 13:05 28.98093 -12.07542 37087 ft 401 kts 208°
2026-05-04 13:06 28.92857 -12.09638 37085 ft 401 kts 208°
2026-05-04 13:06 28.87563 -12.11756 37081 ft 401 kts 208°
2026-05-04 13:07 28.82305 -12.13857 37079 ft 401 kts 208°
2026-05-04 13:07 28.77038 -12.15960 37079 ft 401 kts 208°
2026-05-04 13:08 28.71772 -12.18059 37079 ft 401 kts 207°
2026-05-04 13:08 28.67410 -12.19797 37079 ft 401 kts 207°
2026-05-04 13:09 28.61284 -12.22234 37077 ft 401 kts 207°
2026-05-04 13:09 28.56888 -12.23982 37076 ft 401 kts 207°
2026-05-04 13:10 28.51606 -12.26080 37071 ft 401 kts 207°
2026-05-04 13:10 28.46351 -12.28164 37068 ft 401 kts 207°
2026-05-04 13:11 28.41086 -12.30251 37062 ft 400 kts 207°
2026-05-04 13:11 28.35838 -12.32328 37064 ft 400 kts 207°
2026-05-04 13:12 28.30576 -12.34409 37067 ft 401 kts 207°
2026-05-04 13:12 28.25329 -12.36482 37068 ft 401 kts 207°
2026-05-04 13:13 28.20032 -12.38572 37056 ft 401 kts 207°
2026-05-04 13:13 28.14777 -12.40644 37059 ft 401 kts 207°
2026-05-04 13:14 28.09500 -12.42721 37061 ft 401 kts 207°
2026-05-04 13:14 28.04235 -12.44793 37060 ft 401 kts 207°
2026-05-04 13:15 27.98973 -12.46861 37056 ft 401 kts 207°
2026-05-04 13:15 27.93707 -12.48928 37052 ft 401 kts 207°
2026-05-04 13:16 27.88446 -12.50992 37047 ft 401 kts 207°
2026-05-04 13:16 27.83180 -12.53055 37049 ft 401 kts 207°
2026-05-04 13:17 27.77896 -12.55124 37049 ft 401 kts 207°
2026-05-04 13:17 27.72629 -12.57183 37045 ft 401 kts 207°
2026-05-04 13:18 27.67593 -12.59675 37048 ft 390 kts 218°
2026-05-04 13:18 27.63357 -12.63412 37039 ft 381 kts 231°
2026-05-04 13:19 27.59738 -12.67754 37048 ft 381 kts 231°
2026-05-04 13:19 27.56119 -12.72121 37045 ft 381 kts 231°
2026-05-04 13:20 27.52484 -12.76478 37048 ft 382 kts 231°
2026-05-04 13:20 27.48845 -12.80822 37046 ft 383 kts 231°
2026-05-04 13:21 27.45186 -12.85181 37047 ft 383 kts 231°
2026-05-04 13:21 27.41513 -12.89551 37050 ft 384 kts 230°
2026-05-04 13:22 27.37836 -12.93922 37049 ft 384 kts 230°
2026-05-04 13:22 27.34164 -12.98282 37047 ft 384 kts 230°
2026-05-04 13:23 27.30488 -13.02643 37048 ft 384 kts 230°
2026-05-04 13:23 27.26792 -13.07023 37050 ft 384 kts 230°
2026-05-04 13:24 27.23118 -13.11374 37049 ft 384 kts 230°
2026-05-04 13:24 27.19446 -13.15718 37049 ft 383 kts 230°
2026-05-04 13:25 27.13858 -13.22158 37041 ft 386 kts 225°
2026-05-04 13:25 27.09526 -13.25758 37043 ft 388 kts 221°
2026-05-04 13:26 27.05180 -13.29275 37046 ft 387 kts 221°
2026-05-04 13:26 27.00801 -13.32836 37047 ft 387 kts 221°
2026-05-04 13:27 26.96464 -13.36371 37046 ft 387 kts 221°
2026-05-04 13:27 26.92115 -13.39916 37044 ft 387 kts 221°
2026-05-04 13:28 26.87752 -13.43470 37045 ft 386 kts 221°
2026-05-04 13:28 26.83404 -13.47009 37046 ft 386 kts 221°
2026-05-04 13:29 26.79054 -13.50545 37044 ft 386 kts 221°
2026-05-04 13:29 26.74713 -13.54071 37042 ft 386 kts 221°
2026-05-04 13:30 26.70356 -13.57607 37042 ft 386 kts 221°
2026-05-04 13:30 26.66014 -13.61127 37038 ft 387 kts 221°
2026-05-04 13:31 26.61660 -13.64652 37041 ft 387 kts 221°
2026-05-04 13:31 26.57271 -13.68204 37039 ft 387 kts 221°
2026-05-04 13:32 26.52910 -13.71729 37035 ft 387 kts 221°
2026-05-04 13:32 26.48558 -13.75243 37035 ft 387 kts 221°
2026-05-04 13:33 26.44191 -13.78767 37038 ft 388 kts 221°
2026-05-04 13:33 26.39803 -13.82303 37032 ft 388 kts 221°
2026-05-04 13:34 26.35427 -13.85827 37032 ft 388 kts 221°
2026-05-04 13:34 26.31054 -13.89345 37032 ft 388 kts 221°
2026-05-04 13:35 26.24487 -13.94622 37025 ft 388 kts 220°
2026-05-04 13:36 26.20078 -13.98160 37026 ft 389 kts 220°
2026-05-04 13:36 26.15705 -14.01666 37022 ft 389 kts 220°
2026-05-04 13:37 26.11323 -14.05176 37019 ft 389 kts 220°
2026-05-04 13:37 26.06928 -14.08694 37015 ft 389 kts 220°
2026-05-04 13:38 26.02533 -14.12208 37018 ft 389 kts 220°
2026-05-04 13:38 25.98156 -14.15704 37008 ft 389 kts 220°
2026-05-04 13:39 25.93751 -14.19220 37010 ft 388 kts 220°
2026-05-04 13:39 25.89360 -14.22721 37005 ft 388 kts 220°
2026-05-04 13:40 25.84982 -14.26209 37003 ft 388 kts 220°
2026-05-04 13:40 25.80605 -14.29693 37000 ft 388 kts 220°
2026-05-04 13:41 25.76201 -14.33196 36999 ft 388 kts 220°
2026-05-04 13:41 25.71810 -14.36687 37001 ft 388 kts 220°
2026-05-04 13:42 25.65278 -14.41940 36993 ft 388 kts 220°
2026-05-04 13:42 25.60894 -14.45469 36997 ft 388 kts 220°
2026-05-04 13:43 25.56530 -14.48976 36993 ft 388 kts 220°
2026-05-04 13:43 25.52162 -14.52482 36995 ft 388 kts 220°
2026-05-04 13:44 25.47774 -14.55999 36983 ft 386 kts 220°
2026-05-04 13:44 25.43477 -14.59438 36987 ft 379 kts 220°
2026-05-04 13:45 25.39239 -14.62830 36811 ft 379 kts 220°
2026-05-04 13:45 25.37107 -14.64536 36568 ft 373 kts 220°
2026-05-04 13:45 25.35000 -14.66219 36161 ft 369 kts 220°
2026-05-04 13:46 25.32924 -14.67876 35809 ft 365 kts 220°
2026-05-04 13:46 25.30883 -14.69507 35422 ft 362 kts 220°
2026-05-04 13:46 25.28866 -14.71117 35040 ft 360 kts 220°
2026-05-04 13:46 25.26833 -14.72740 34655 ft 357 kts 220°
2026-05-04 13:47 25.24837 -14.74333 34277 ft 355 kts 220°
2026-05-04 13:47 25.22831 -14.75933 33879 ft 353 kts 220°
2026-05-04 13:47 25.20836 -14.77524 33459 ft 351 kts 220°
2026-05-04 13:47 25.18860 -14.79099 33063 ft 349 kts 220°
2026-05-04 13:48 25.16913 -14.80649 32688 ft 346 kts 220°
2026-05-04 13:48 25.14949 -14.82212 32316 ft 344 kts 220°
2026-05-04 13:48 25.13030 -14.83740 31953 ft 342 kts 220°
2026-05-04 13:48 25.11100 -14.85276 31595 ft 339 kts 220°
2026-05-04 13:49 25.09828 -14.86287 31350 ft 338 kts 220°
2026-05-04 13:49 25.07911 -14.87813 30994 ft 336 kts 220°
2026-05-04 13:49 25.06037 -14.89303 30646 ft 334 kts 220°
2026-05-04 13:49 25.04148 -14.90804 30293 ft 332 kts 220°
2026-05-04 13:50 25.02265 -14.92299 29930 ft 331 kts 220°
2026-05-04 13:50 25.00412 -14.93769 29517 ft 329 kts 220°
2026-05-04 13:50 24.98554 -14.95240 29132 ft 326 kts 220°
2026-05-04 13:50 24.96741 -14.96669 28765 ft 323 kts 220°
2026-05-04 13:51 24.94915 -14.98108 28402 ft 320 kts 220°
2026-05-04 13:51 24.93102 -14.99536 28054 ft 317 kts 220°
2026-05-04 13:51 24.91327 -15.00935 27693 ft 315 kts 220°
2026-05-04 13:51 24.89545 -15.02339 27348 ft 312 kts 220°
2026-05-04 13:52 24.86045 -15.05096 26664 ft 308 kts 220°
2026-05-04 13:52 24.84305 -15.06466 26320 ft 305 kts 220°
2026-05-04 13:52 24.82597 -15.07811 25989 ft 304 kts 220°
2026-05-04 13:53 24.80881 -15.09161 25651 ft 302 kts 220°
2026-05-04 13:53 24.79168 -15.10509 25312 ft 300 kts 220°
2026-05-04 13:53 24.77489 -15.11830 24984 ft 299 kts 220°
2026-05-04 13:54 24.74104 -15.14491 24320 ft 296 kts 220°
2026-05-04 13:54 24.72446 -15.15794 23986 ft 295 kts 220°
2026-05-04 13:54 24.69096 -15.18425 23267 ft 294 kts 220°
2026-05-04 13:55 24.67454 -15.19714 22912 ft 292 kts 220°
2026-05-04 13:55 24.64150 -15.22306 22221 ft 288 kts 220°
2026-05-04 13:55 24.62555 -15.23556 21899 ft 286 kts 220°
2026-05-04 13:56 24.60931 -15.24828 21575 ft 284 kts 220°
2026-05-04 13:56 24.59323 -15.26089 21252 ft 282 kts 220°
2026-05-04 13:56 24.56154 -15.28571 20624 ft 279 kts 220°
2026-05-04 13:57 24.54572 -15.29810 20297 ft 277 kts 219°
2026-05-04 13:57 24.53016 -15.31028 19995 ft 277 kts 219°
2026-05-04 13:58 24.48212 -15.34790 19032 ft 293 kts 219°
2026-05-04 13:58 24.44859 -15.37411 18347 ft 294 kts 218°
2026-05-04 13:58 24.43203 -15.38704 17966 ft 294 kts 218°
2026-05-04 13:59 24.41540 -15.40001 17612 ft 292 kts 218°
2026-05-04 13:59 24.39895 -15.41284 17268 ft 291 kts 218°
2026-05-04 13:59 24.36605 -15.43850 16605 ft 287 kts 218°
2026-05-04 14:00 24.34976 -15.45120 16273 ft 286 kts 218°
2026-05-04 14:00 24.31760 -15.47626 15630 ft 284 kts 218°
2026-05-04 14:00 24.30147 -15.48883 15305 ft 283 kts 218°
2026-05-04 14:01 24.28563 -15.50117 14989 ft 282 kts 218°
2026-05-04 14:01 24.26957 -15.51367 14669 ft 281 kts 217°
2026-05-04 14:01 24.23783 -15.53838 14033 ft 280 kts 217°
2026-05-04 14:02 24.22184 -15.55081 13701 ft 280 kts 217°
2026-05-04 14:02 24.20595 -15.56317 13352 ft 279 kts 217°
2026-05-04 14:02 24.19008 -15.57550 13023 ft 278 kts 217°
2026-05-04 14:02 24.17430 -15.58777 12699 ft 278 kts 217°
2026-05-04 14:03 24.15876 -15.59984 12384 ft 277 kts 217°
2026-05-04 14:03 24.14289 -15.61216 12061 ft 276 kts 217°
2026-05-04 14:03 24.12729 -15.62428 11749 ft 275 kts 217°
2026-05-04 14:03 24.11185 -15.63626 11444 ft 274 kts 217°
2026-05-04 14:04 24.08082 -15.66034 10834 ft 272 kts 216°
2026-05-04 14:04 24.06546 -15.67225 10517 ft 272 kts 216°
2026-05-04 14:04 24.05006 -15.68418 10225 ft 271 kts 216°
2026-05-04 14:05 24.01981 -15.70762 9817 ft 263 kts 216°
2026-05-04 14:05 24.00492 -15.71916 9522 ft 262 kts 216°
2026-05-04 14:05 23.99023 -15.73053 9237 ft 260 kts 216°
2026-05-04 14:06 23.97540 -15.74201 8952 ft 259 kts 216°
2026-05-04 14:06 23.96069 -15.75340 8677 ft 258 kts 216°
2026-05-04 14:06 23.94618 -15.76463 8395 ft 257 kts 216°
2026-05-04 14:06 23.93155 -15.77594 8122 ft 257 kts 216°
2026-05-04 14:07 23.91696 -15.78723 7843 ft 256 kts 216°
2026-05-04 14:07 23.90240 -15.79848 7571 ft 256 kts 216°
2026-05-04 14:07 23.88798 -15.80963 7300 ft 255 kts 216°
2026-05-04 14:07 23.87345 -15.82086 7027 ft 254 kts 216°
2026-05-04 14:08 23.85896 -15.83205 6756 ft 254 kts 216°
2026-05-04 14:08 23.84454 -15.84319 6488 ft 253 kts 216°
2026-05-04 14:08 23.83028 -15.85420 6207 ft 253 kts 215°
2026-05-04 14:08 23.81583 -15.86535 5900 ft 252 kts 216°
2026-05-04 14:09 23.78750 -15.88722 5369 ft 247 kts 215°
2026-05-04 14:09 23.77378 -15.89779 5221 ft 234 kts 215°
2026-05-04 14:10 23.74822 -15.91756 4645 ft 223 kts 216°
2026-05-04 14:10 23.73570 -15.92761 4301 ft 220 kts 219°
2026-05-04 14:10 23.72422 -15.93850 3919 ft 221 kts 220°
2026-05-04 14:10 23.71282 -15.94979 3530 ft 223 kts 221°
2026-05-04 14:11 23.70136 -15.96131 3148 ft 224 kts 220°
2026-05-04 14:11 23.67852 -15.98486 2354 ft 230 kts 221°
2026-05-04 14:11 23.66688 -15.99691 2049 ft 228 kts 220°
2026-05-04 14:12 23.65540 -16.00885 2003 ft 231 kts 221°
2026-05-04 14:12 23.64378 -16.02097 1980 ft 233 kts 221°
2026-05-04 14:12 23.62042 -16.04536 1961 ft 228 kts 221°
2026-05-04 14:13 23.60916 -16.05711 1965 ft 224 kts 221°
2026-05-04 14:13 23.59747 -16.06826 1946 ft 224 kts 206°
2026-05-04 14:13 23.58283 -16.07101 1975 ft 214 kts 163°
2026-05-04 14:13 23.57063 -16.06247 1966 ft 210 kts 121°
2026-05-04 14:14 23.56727 -16.04739 1973 ft 210 kts 81°
2026-05-04 14:14 23.58175 -16.02032 1963 ft 208 kts 56°
2026-05-04 14:14 23.59054 -16.00764 1960 ft 207 kts 55°
2026-05-04 14:15 23.60829 -15.98519 1943 ft 187 kts 34°
2026-05-04 14:15 23.62990 -15.97256 1700 ft 173 kts 27°
2026-05-04 14:16 23.65155 -15.96268 1267 ft 159 kts 27°
2026-05-04 14:16 23.66129 -15.95821 1057 ft 148 kts 26°
2026-05-04 14:17 23.67958 -15.94980 682 ft 138 kts 22°
2026-05-04 14:17 23.68860 -15.94565 504 ft 142 kts 20°
2026-05-04 14:17 23.70668 -15.93727 100 ft 135 kts 21°
2026-05-04 14:18 23.71481 -15.93356 41 ft 110 kts 22°
2026-05-04 14:18 23.72145 -15.93053 36 ft 18 kts 22°
2026-05-04 14:19 23.72425 -15.92924 37 ft 25 kts 22°
2026-05-04 14:19 23.72544 -15.92853 37 ft 17 kts 54°
2026-05-04 14:19 23.72530 -15.92742 36 ft 16 kts 136°
2026-05-04 14:19 23.72427 -15.92728 37 ft 16 kts 201°
2026-05-04 14:20 23.72316 -15.92777 37 ft 19 kts 202°
2026-05-04 14:20 23.72190 -15.92835 38 ft 21 kts 202°
2026-05-04 14:20 23.72050 -15.92899 38 ft 23 kts 203°
2026-05-04 14:21 23.71735 -15.93042 39 ft 25 kts 202°
2026-05-04 14:21 23.71594 -15.93107 40 ft 19 kts 203°
2026-05-04 14:21 23.71509 -15.93092 40 ft 13 kts 117°
2026-05-04 14:21 23.71474 -15.93002 40 ft 13 kts 113°
2026-05-04 14:22 23.71447 -15.92933 39 ft 6 kts 112°
2026-05-04 14:22 23.71412 -15.92914 40 ft 6 kts 192°
2026-05-04 14:22 23.71384 -15.92936 40 ft 4 kts 216°
2026-05-04 14:22 23.71370 -15.92929 40 ft 2 kts 117°
2026-05-04 14:23 23.71373 -15.92899 40 ft 0 kts 66°